Location: Lecco
(45.8566°N, 9.3977°E)
Time: 02:21:34
(UTC+02:00)

Courier 1B - Pass Details

Date: 26 August 2019
Orbit: 962 x 1209 km, 28.3° (Epoch: 19 September)

Event Time Altitude Azimuth Distance (km) Brightness Sun altitude
Rises 21:24:25 0° 246° (WSW) 3,725 11.1 -12.4°
Reaches altitude 10° 21:29:30 10° 214° (SSW) 2,724 9.9 -13.2°
Maximum altitude 21:31:16 11° 198° (SSW) 2,626 9.6 -13.4°
Drops below altitude 10° 21:33:02 10° 182° (S) 2,699 9.5 -13.7°
Enters shadow 21:34:54 - 167° (SSE) 2,946 9.6 -14.0°
